Flag for Germany Weather past 2 weeks in Dülmen, North Rhine-Westphalia, Germany

Now
72 °F

Sunny.


Feels Like: 76 °F
Forecast: 56 / 63 °F
Wind: 7 mph from West

Location: Dortmund / Wickede

Current Time: Jul 7, 2015 at 9:48:20 PM

Latest Report: Jul 7, 2015 at 9:20 PM


Visibility: 10 mi

Pressure: 29.71 "Hg

Humidity: 57%

Dew point: 55 °F

Location of DülmenLocation

Historic Weather in Dülmen — Graph

°F

Dülmen temperature yesterday

Maximum temperature yesterday: 75 °F (at 4:20 PM)
Minimum temperature yesterday: 59 °F (at 5:20 AM)
Average temperature yesterday: 67 °F

Past Weeks' High & Low Weather Summary

 TemperatureHumidityPressure
High97 °F (Jul 2, 2:50 PM)94% (Jun 23, 5:50 AM)30.24 "Hg (Jun 23, 5:50 AM)
Low48 °F (Jun 23, 5:20 AM)22% (Jul 2, 3:20 PM)29.68 "Hg (Jun 22, 8:20 PM)
Average71 °F56%30.07 "Hg
* Reported Jun 22 8:20 PM — Jul 7 8:50 PM, Dülmen, Weather by CustomWeather, © 2015

Note: Actual official high and low records may vary slightly from our data, if they occured in-between our weather recording intervals... More about our weather records

Advertising

Dülmen weather history for previous 24 hours

 ConditionsComfort  
Time TempWeatherWind HumidityBarometerVisibility
8:50 PM
Tue, Jul 7
73 °FSunny.8 mph53%29.71 "Hg10 mi
8:20 PM73 °FSunny.14 mph61%29.71 "Hg10 mi
7:50 PM73 °FSunny.15 mph61%29.71 "Hg10 mi
7:20 PM73 °FSunny.15 mph65%29.71 "Hg10 mi
6:50 PM75 °FSunny.14 mph57%29.71 "Hg10 mi
6:20 PM75 °FPartly sunny.16 mph54%29.74 "HgN/A
5:50 PM77 °FSprinkles. Scattered clouds.14 mph51%29.71 "HgN/A
5:20 PM77 °FThundershowers. Broken clouds.13 mph54%29.74 "HgN/A
4:50 PM81 °FThundershowers. Partly sunny.7 mph45%29.74 "HgN/A
4:20 PM81 °FPassing clouds.6 mph48%29.74 "HgN/A
3:50 PM84 °FPassing clouds.7 mph43%29.74 "HgN/A
3:20 PM84 °FSunny.7 mph35%29.74 "Hg10 mi
2:50 PM82 °FSunny.9 mph40%29.77 "Hg10 mi
2:20 PM82 °FPassing clouds.12 mph40%29.77 "HgN/A
1:50 PM84 °FPassing clouds.12 mph37%29.80 "HgN/A
1:20 PM86 °FPassing clouds.12 mph31%29.80 "HgN/A
12:50 PM84 °FPassing clouds.9 mph31%29.83 "HgN/A
12:20 PM84 °FPassing clouds.10 mph33%29.83 "HgN/A
11:50 AM82 °FPassing clouds.12 mph32%29.83 "HgN/A
11:20 AM82 °FPassing clouds.10 mph32%29.86 "HgN/A
10:50 AM81 °FPassing clouds.9 mph34%29.86 "HgN/A
10:20 AM77 °FPassing clouds.7 mph39%29.86 "HgN/A
9:50 AM77 °FSunny.9 mph44%29.89 "Hg10 mi
9:20 AM73 °FPassing clouds.6 mph44%29.89 "HgN/A
8:50 AM72 °FPassing clouds.6 mph47%29.92 "HgN/A
8:20 AM68 °FSunny.7 mph53%29.92 "Hg10 mi
7:50 AM66 °FSunny.3 mph56%29.92 "Hg10 mi
7:20 AM64 °FSunny.2 mph64%29.95 "Hg10 mi
6:50 AM63 °FSunny.7 mph59%29.95 "Hg10 mi
6:20 AM59 °FSunny.3 mph72%29.95 "Hg10 mi
5:50 AM59 °FClear.7 mph68%29.98 "Hg10 mi
5:20 AM59 °FClear.8 mph72%29.98 "Hg10 mi
10:50 PM
Mon, Jul 6
63 °FClear.6 mph64%30.07 "Hg10 mi
10:20 PM59 °FSunny.3 mph68%30.07 "Hg10 mi
9:50 PM66 °FSunny.2 mph56%30.07 "Hg10 mi
9:20 PM64 °FSunny.3 mph60%30.07 "Hg10 mi
Weather by CustomWeather, © 2015

See weather overviewHow to use our weather pages